Weather History for Homestead AFB, FL

Change the Weather History Date:

Friday, March 1, 2013

  Actual Average Record
Temperature  
Mean Temperature 62 °F -  
Max Temperature 66 °F 77 °F 89 °F (1945)
Min Temperature 59 °F 56 °F 36 °F (1942)
Degree Days  
Heating Degree Days 2    
Growing Degree Days 12 (Base 50)    
Moisture  
Dew Point 54 °F    
Average Humidity 73    
Maximum Humidity 88    
Minimum Humidity 59    
Precipitation  
Precipitation 0.01 in - - ()
Sea Level Pressure  
Sea Level Pressure 29.96 in    
Wind  
Wind Speed 5 mph (NNW)    
Max Wind Speed 12 mph    
Max Gust Speed -    
Visibility 10 miles    
Events Rain    
Averages and records for this station are not official NWS values.
T = Trace of Precipitation, MM = Missing Value Source: NWS Daily Summary

Daily Weather History Graph

Daily Weather History Graph

Search for Another Location

Airport:

Trip Planner

Search our weather history database for the weather conditions in past years. The results will help you decide how hot, cold, wet, or windy it might be!

Date:

Astronomy

Mar. 01, 2013 Rise Set
Actual Time 6:44 AM EST 6:23 PM EST
Civil Twilight 6:21 AM EST 6:46 PM EST
Nautical Twilight 5:54 AM EST 7:13 PM EST
Astronomical Twilight 5:28 AM EST 7:39 PM EST
Moon 10:22 PM EST (3/1) 8:59 AM EST (3/1)
Length of Visible Light 12h 25m
Length of Day
11h 39m
Waning Gibbous, 83% of the Moon is Illuminated
Mar 1
Waning Gibbous
Mar 4
Last Quarter
Mar 11
New
Mar 19
First Quarter
Mar 27
Full

Hourly Weather History & Observations

Time (EST) Temp. Dew Point Humidity Pressure Visibility Wind Dir Wind Speed Gust Speed Precip Events Conditions
12:35 AM 64.4 °F 53.6 °F 68% 29.96 in 10.0 mi West 4.6 mph - N/A Rain Light Rain
12:45 AM 64.4 °F 55.4 °F 73% 29.96 in 10.0 mi West 3.5 mph - N/A   Mostly Cloudy
12:58 AM 64.4 °F 55.4 °F 73% 29.97 in 10.0 mi West 4.6 mph - N/A   Mostly Cloudy
1:58 AM 64.4 °F 55.4 °F 73% 29.95 in 10.0 mi WNW 6.9 mph - N/A   Scattered Clouds
2:58 AM 64.4 °F 57.2 °F 77% 29.95 in 10.0 mi WNW 5.8 mph - N/A   Overcast
3:10 AM 64.4 °F 57.2 °F 77% 29.94 in 10.0 mi WNW 5.8 mph - N/A Rain Rain
3:22 AM 64.4 °F 57.2 °F 77% 29.94 in 10.0 mi NW 4.6 mph - N/A   Mostly Cloudy
3:58 AM 64.4 °F 57.2 °F 77% 29.95 in 10.0 mi WNW 4.6 mph - N/A   Mostly Cloudy
4:18 AM 64.4 °F 57.2 °F 77% 29.94 in 10.0 mi NW 4.6 mph - N/A Rain Light Rain
4:42 AM 62.6 °F 59.0 °F 88% 29.95 in 10.0 mi NW 4.6 mph - N/A   Scattered Clouds
4:47 AM 62.6 °F 59.0 °F 88% 29.95 in 10.0 mi NW 4.6 mph - N/A Rain Light Rain
4:58 AM 62.6 °F 59.0 °F 88% 29.95 in 10.0 mi NW 4.6 mph - N/A Rain Light Rain
5:21 AM 62.6 °F 59.0 °F 88% 29.94 in 10.0 mi Calm Calm - N/A   Clear
5:58 AM 62.6 °F 59.0 °F 88% 29.95 in 10.0 mi WNW 2.3 mph - N/A   Partly Cloudy
6:58 AM 62.6 °F 57.2 °F 82% 29.96 in 10.0 mi NNW 3.5 mph - N/A   Scattered Clouds
7:51 AM 62.6 °F 57.2 °F 82% 29.96 in 10.0 mi North 5.8 mph - N/A Rain Light Rain
7:58 AM 62.6 °F 57.2 °F 82% 29.98 in 10.0 mi North 5.8 mph - N/A Rain Light Rain
8:00 AM 62.6 °F 57.2 °F 82% 29.97 in 10.0 mi North 5.8 mph - N/A   Clear
8:58 AM 64.4 °F 50.0 °F 59% 29.99 in 10.0 mi North 8.1 mph - N/A   Scattered Clouds
9:58 AM 64.4 °F 50.0 °F 59% 29.98 in 10.0 mi North 6.9 mph - N/A   Overcast
10:04 AM 64.4 °F 50.0 °F 59% 29.98 in 10.0 mi North 5.8 mph - N/A   Light Drizzle
10:14 AM 64.4 °F 51.8 °F 64% 29.98 in 10.0 mi NNW 8.1 mph - N/A   Overcast
10:58 AM 66.2 °F 51.8 °F 60% 30.00 in 10.0 mi North 8.1 mph - N/A   Mostly Cloudy
11:58 AM 64.4 °F 53.6 °F 68% 29.99 in 10.0 mi NNW 9.2 mph - N/A   Mostly Cloudy
12:20 PM 64.4 °F 51.8 °F 64% 29.97 in 10.0 mi NNW 11.5 mph - N/A Rain Light Rain
12:39 PM 64.4 °F 53.6 °F 68% 29.98 in 10.0 mi North 10.4 mph - N/A   Scattered Clouds
12:58 PM 64.4 °F 51.8 °F 64% 29.98 in 10.0 mi NW 8.1 mph - N/A   Mostly Cloudy
1:01 PM 64.4 °F 51.8 °F 64% 29.97 in 10.0 mi NNW 8.1 mph - N/A   Scattered Clouds
1:23 PM 62.6 °F 53.6 °F 72% 29.96 in 10.0 mi NNW 11.5 mph - N/A Rain Light Rain
1:33 PM 60.8 °F 55.4 °F 82% 29.96 in 10.0 mi NNW 4.6 mph - N/A Rain Light Rain
1:38 PM 60.8 °F 55.4 °F 82% 29.96 in 10.0 mi North 3.5 mph - N/A Rain Light Rain
1:48 PM 60.8 °F 55.4 °F 82% 29.96 in 10.0 mi West 2.3 mph - N/A   Light Drizzle
1:58 PM 60.8 °F 55.4 °F 82% 29.96 in 10.0 mi Calm Calm - N/A   Light Drizzle
2:01 PM 60.8 °F 55.4 °F 82% 29.94 in 10.0 mi WNW 1.2 mph - N/A   Partly Cloudy
2:58 PM 64.4 °F 51.8 °F 64% 29.94 in 10.0 mi NNW 6.9 mph - N/A   Scattered Clouds
3:00 PM 64.4 °F 51.8 °F 64% 29.93 in 10.0 mi NNW 6.9 mph - N/A Rain Light Rain
3:15 PM 64.4 °F 53.6 °F 68% 29.93 in 10.0 mi NNW 8.1 mph - N/A   Partly Cloudy
3:58 PM 64.4 °F 53.6 °F 68% 29.95 in 10.0 mi NW 5.8 mph - N/A   Scattered Clouds
4:17 PM 64.4 °F 51.8 °F 64% 29.93 in 10.0 mi North 4.6 mph - N/A   Light Drizzle
4:32 PM 64.4 °F 51.8 °F 64% 29.93 in 10.0 mi North 4.6 mph - N/A   Partly Cloudy
4:36 PM 64.4 °F 51.8 °F 64% 29.92 in 10.0 mi NNE 3.5 mph - N/A   Light Drizzle
4:45 PM 64.4 °F 51.8 °F 64% 29.93 in 10.0 mi NNW 3.5 mph - N/A   Clear
4:58 PM 64.4 °F 51.8 °F 64% 29.94 in 10.0 mi NW 4.6 mph - N/A   Clear
5:04 PM 64.4 °F 51.8 °F 64% 29.93 in 10.0 mi NW 3.5 mph - N/A Rain Light Rain
5:35 PM 62.6 °F 53.6 °F 72% 29.94 in 10.0 mi WNW 3.5 mph - N/A   Mostly Cloudy
5:37 PM 62.6 °F 53.6 °F 72% 29.94 in 10.0 mi WNW 4.6 mph - N/A Rain Light Rain
5:51 PM 62.6 °F 53.6 °F 72% 29.94 in 10.0 mi NW 3.5 mph - N/A   Scattered Clouds
5:58 PM 62.6 °F 55.4 °F 77% 29.96 in 10.0 mi NW 4.6 mph - N/A   Scattered Clouds
6:33 PM 62.6 °F 53.6 °F 72% 29.96 in 10.0 mi NW 6.9 mph - N/A Rain Light Rain
6:44 PM 62.6 °F 53.6 °F 72% 29.97 in 10.0 mi NW 6.9 mph - N/A   Overcast
6:58 PM 62.6 °F 53.6 °F 72% 29.97 in 10.0 mi NNW 6.9 mph - N/A Rain Light Rain
7:12 PM 62.6 °F 55.4 °F 77% 29.97 in 10.0 mi NNW 5.8 mph - N/A   Overcast
7:16 PM 62.6 °F 55.4 °F 77% 29.97 in 10.0 mi NNW 5.8 mph - N/A Rain Light Rain
7:28 PM 62.6 °F 55.4 °F 77% 29.97 in 10.0 mi North 5.8 mph - N/A   Overcast
7:53 PM 62.6 °F 53.6 °F 72% 29.98 in 10.0 mi North 9.2 mph - N/A Rain Light Rain
7:58 PM 62.6 °F 51.8 °F 68% 29.99 in 10.0 mi North 9.2 mph - N/A Rain Light Rain
8:09 PM 60.8 °F 51.8 °F 72% 29.99 in 10.0 mi North 5.8 mph - N/A   Overcast
8:30 PM 60.8 °F 51.8 °F 72% 29.99 in 10.0 mi NNW 4.6 mph - N/A   Light Drizzle
8:42 PM 60.8 °F 51.8 °F 72% 29.99 in 10.0 mi NNW 9.2 mph - N/A   Overcast
8:58 PM 60.8 °F 51.8 °F 72% 30.00 in 10.0 mi North 8.1 mph - N/A   Overcast
9:06 PM 60.8 °F 51.8 °F 72% 30.00 in 10.0 mi North 8.1 mph - N/A   Light Drizzle
9:58 PM 59.0 °F 51.8 °F 77% 30.01 in 10.0 mi NNW 5.8 mph - N/A Rain Light Rain
10:05 PM 59.0 °F 51.8 °F 77% 30.00 in 10.0 mi NW 5.8 mph - N/A   Overcast
10:58 PM 59.0 °F 51.8 °F 77% 30.01 in 10.0 mi NW 6.9 mph - N/A   Overcast
11:58 PM 59.0 °F 51.8 °F 77% 30.00 in 10.0 mi NNW 8.1 mph - N/A   Overcast